Location: Barletta
(41.3170°N, 16.2830°E)
Time: 16:30:04
(UTC+02:00)

ISS - Pass Details

Date: 14 May 2021
Orbit: 417 x 422 km, 51.6° (Epoch: 18 June)

Event Time Altitude Azimuth Distance (km) Brightness Sun altitude
Exits shadow 01:17:28 14° 343° (NNW) 1,295 -0.6 -29.7°
Maximum altitude 01:18:08 14° 356° (N) 1,265 -0.5 -29.7°
Drops below altitude 10° 01:20:05 10° 32° (NNE) 1,508 -0.2 -29.7°
Sets 01:22:56 0° 58° (ENE) 2,375 0.6 -29.6°
